Location: Mansfield Dam
(30.3944°N, 97.9097°W)
Time: 08:28:20
(UTC-05:00)

Daily predictions for brighter satellites

Satellite Brightness Start Highest point End
(mag) Time Altitude Azimuth Time Altitude Azimuth Time Altitude Azimuth
BREEZE-M DEB (TANK) 1.6 20:32:35 10° SW 20:34:50 57° SE 20:38:26 10° NE
Cosmos 921 Rocket 3.5 20:34:06 10° SSE 20:37:54 34° E 20:41:41 10° NE
Cosmos 2026 Rocket 4.4 20:34:51 10° SSE 20:40:42 43° E 20:46:38 10° NNE
USA 186 3.4 20:38:21 10° ESE 20:40:45 19° ENE 20:43:12 10° NNE
Cosmos 1674 Rocket 3.8 20:36:36 10° N 20:40:57 77° W 20:45:18 10° S
ERBS 2.6 20:40:02 10° SSW 20:43:23 47° ESE 20:46:44 10° NE
Cosmos 1975 Rocket 4.1 20:39:37 10° NNE 20:43:28 28° E 20:47:16 10° SE
Cosmos 1697 Rocket 3.0 20:38:00 10° SSW 20:43:35 76° WNW 20:49:14 10° NNE
Envisat 4.1 20:39:48 10° ESE 20:43:50 25° ENE 20:47:54 10° NNE
GOES 2 Rocket 3.5 20:38:27 10° W 20:44:09 68° S 20:48:36 10° ESE
H-2A R/B 2.7 20:41:38 10° SSE 20:45:29 85° ENE 20:49:18 10° N
Meteor 1-14 Rocket 4.2 20:40:19 10° S 20:46:03 85° E 20:51:42 10° N
Cosmos 1633 3.5 20:43:57 10° SSE 20:47:01 27° E 20:50:06 10° NNE
Cosmos 2056 Rocket 3.6 20:42:36 10° SSW 20:47:42 85° WNW 20:52:52 10° NNE
Cosmos 1461 3.4 20:45:12 10° NNW 20:49:35 51° ENE 20:54:05 10° SE
Meteor 1-25 Rocket 4.3 20:46:34 10° S 20:52:22 75° E 20:58:12 10° NNE
SJ-6B 3.2 20:48:31 10° S 20:52:28 71° WSW 20:56:32 10° NNW
Intercosmos 25 Rocket 2.7 20:56:04 10° N 20:59:17 82° E 21:02:35 10° S
ISS -1.9 20:57:13 10° WNW 20:59:56 25° SW 21:02:39 10° S
Cosmos 2360 4.2 20:55:43 10° S 21:01:22 72° ESE 21:07:03 10° NNE
Cosmos 1939 Rocket 4.2 20:59:35 15° ESE 21:01:40 21° ENE 21:04:43 10° NNE
Cosmos 1812 2.7 20:59:15 10° N 21:03:07 67° E 21:06:57 10° SSE
Meteor 1-18 Rocket 4.4 20:57:57 10° N 21:03:48 59° E 21:09:36 10° SSE
Palapa 6 Rocket 4.5 20:58:52 10° WSW 21:04:10 40° S 21:09:05 16° ESE
USA 267 3.7 20:59:13 10° SSE 21:05:40 60° SW 21:12:08 10° NW
Helios 1B rocket 3.7 21:03:11 10° NE 21:06:14 20° E 21:07:26 18° ESE
Okean 2 Rocket 3.0 21:02:36 10° S 21:07:02 69° E 21:11:30 10° NNE
OAO 3 Rocket 3.2 21:03:08 10° WNW 21:07:53 70° SSW 21:11:11 19° ESE
Cosmos 1452 Rocket 3.5 21:06:37 10° S 21:11:47 60° ESE 21:16:59 10° NNE
Cosmos 2297 Rocket 2.9 21:09:28 10° NNW 21:14:59 55° WSW 21:20:27 10° S
SEDSat Delta rocket 4.0 21:09:17 10° W 21:16:07 86° S 21:20:45 20° ESE
Okean 1 3.5 21:14:07 10° N 21:17:58 47° E 21:20:21 21° SSE
Cosmos 1420 Rocket 4.2 21:13:10 10° S 21:18:04 44° ESE 21:22:58 10° NNE
Cosmos 839 Rocket 4.0 21:12:33 10° SSW 21:19:09 85° ESE 21:25:18 10° NNE
Resurs 1-3 3.6 21:18:16 10° S 21:22:39 85° WSW 21:27:03 10° NNW
Lacrosse 5 rocket 3.5 21:22:45 10° NNE 21:23:49 11° NE 21:24:42 10° NE
ATLAS 2AS CENTAUR R/B 3.5 21:19:59 10° SSE 21:26:23 32° ESE 21:33:11 10° NE
Cosmos 407 Rocket 3.5 21:22:03 10° N 21:27:24 69° ENE 21:31:01 21° SSE
Cosmos 1190 Rocket 3.9 21:22:53 10° NNW 21:28:10 79° ENE 21:32:07 18° SSE
Helios 1A 3.9 21:28:45 28° E 21:29:34 30° ENE 21:33:17 10° NNE
Cosmos 44 4.5 21:27:34 10° N 21:31:08 23° ENE 21:31:59 22° ENE
Cosmos 2322 Rocket 2.3 21:28:00 10° S 21:33:29 50° ESE 21:38:59 10° NNE
GPS 2-05 Rocket1 3.7 21:30:24 10° W 21:33:35 42° NNW 21:35:11 23° NE
BREEZE-M DEB (TANK) 4.3 21:33:18 10° NNW 21:37:23 52° NE 21:45:26 24° ESE
NOSS 2-3 (E) 3.9 21:33:25 10° S 21:37:46 46° ESE 21:42:28 10° NE
Cosmos 1441 Rocket 4.1 21:36:10 10° NNW 21:39:46 47° W 21:42:53 13° SSW
SL-16 R/B 2.1 21:36:26 10° S 21:41:59 61° ESE 21:47:34 10° NNE
Cosmos 2263 Rocket 3.9 21:40:14 10° NNE 21:43:43 16° ENE 21:44:12 16° ENE
Cosmos 676 Rocket 4.0 21:38:45 10° N 21:44:01 64° ENE 21:46:08 36° SE
Resurs 01 Rocket 3.0 21:42:19 10° SSW 21:46:26 38° W 21:50:36 10° NNW
Delta 2 Rocket 4.1 21:42:59 10° SW 21:46:30 37° SSE 21:46:30 37° SSE
S3M 3.9 21:44:21 10° N 21:50:36 68° E 21:53:56 29° SSE
Cosmos 1553 Rocket 3.8 21:48:46 10° N 21:54:56 82° E 21:58:20 28° S
MINOTAUR IV R/B 4.5 21:50:37 10° NNW 21:55:10 87° ENE 21:56:13 53° SSE
Meteosat 1 Rocket2 4.4 21:49:51 10° SW 21:55:37 51° SSE 21:58:42 35° ESE
SJ-11-01 4.2 21:54:41 35° S 21:56:38 82° WSW 22:01:19 10° NNW
Cosmos 2266 Rocket 3.9 21:54:33 30° SSE 21:57:31 61° E 22:03:26 10° NNE
Skynet4D Del rocket 3.9 21:51:02 10° WSW 21:57:33 61° S 21:59:06 46° ESE
Meteor 1-13 Rocket 4.2 21:53:25 10° N 21:59:22 73° E 22:01:35 40° SSE
Okean 1 Rocket 4.1 22:01:25 32° NE 22:01:25 32° NE 22:04:06 10° NNE
H-2A R/B 3.8 22:03:02 17° NE 22:03:02 17° NE 22:05:17 10° NNE
Meteor 1-5 Rocket 4.1 22:02:22 53° ESE 22:02:47 54° E 22:07:57 10° NNE
Atlas Centaur 2 2.5 21:57:13 10° W 22:05:05 90° SW 22:07:34 42° E
Cosmos 1954 Rocket 3.9 22:02:29 10° NNW 22:07:50 89° ENE 22:09:00 56° SSE
Cosmos 1140 Rocket 3.4 22:02:51 10° NNW 22:08:06 74° ENE 22:08:46 64° SE
Meteor 1-29 4.0 22:05:20 10° N 22:07:40 40° N 22:07:40 40° N
Cosmos 2360 Rocket 3.6 22:12:28 23° NE 22:12:28 23° NE 22:14:44 10° NE
Centaur AC-116 4.4 22:05:55 10° WSW 22:09:12 25° SW 22:09:12 25° SW
Cosmos 1300 Rocket 3.4 22:10:26 77° SW 22:10:41 82° W 22:15:00 10° N
NOSS 2-3 (C) 3.8 22:06:46 10° SSW 22:11:18 78° WNW 22:16:21 10° NNE
CZ-4C R/B 3.9 22:05:05 10° NW 22:12:11 44° WSW 22:17:50 18° S
Milstar 3 4.2 21:54:36 10° W 22:12:42 57° SSW 22:17:24 36° SSE
Cosmos 44 Rocket 3.2 22:11:51 10° NNW 22:16:28 76° NE 22:16:28 76° NE
Meteor 2-4 Rocket 3.6 22:11:16 10° N 22:16:48 72° E 22:17:18 68° ESE
YAOGAN 6 3.7 22:18:33 43° WNW 22:18:33 43° WNW 22:21:32 10° NNW
Cosmos 614 Rocket 3.8 22:15:30 10° NNW 22:20:38 83° ENE 22:20:39 83° ENE
MetOp-B 4.3 22:22:33 56° NE 22:22:33 56° NE 22:27:23 10° N
NOAA 11 4.0 22:24:56 79° SE 22:25:14 83° ENE 22:30:45 10° N
ERS-1 Rocket 3.0 22:26:00 70° NNE 22:26:00 70° NNE 22:30:35 10° N
SPOT 5 4.1 22:27:38 31° NE 22:27:38 31° NE 22:30:36 10° N
ATLAS 3B R/B 4.0 22:50:51 10° N 22:55:33 25° NE 22:55:33 25° NE
Centaur D AC-29 3.9 22:51:09 10° SW 22:58:07 24° SSW 22:58:07 24° SSW
Lacrosse 5 rocket 4.0 22:59:29 10° NW 23:00:24 17° NW 23:00:24 17° NW
ATLAS 2AS CENTAUR R/B 3.8 23:09:52 10° SW 23:17:04 47° NW 23:24:46 10° NNE
Cosmos 2263 Rocket 3.5 23:22:24 10° NNW 23:25:53 36° NW 23:25:53 36° NW
Terra 4.4 23:36:46 16° N 23:36:46 16° N 23:37:44 10° N
H-2A R/B 4.1 23:43:41 23° NW 23:43:41 23° NW 23:45:44 10° NNW
Cosmos 2360 Rocket 4.2 23:54:08 22° NW 23:54:08 22° NW 23:57:59 10° N
Atlas Centaur 2 4.3 23:47:41 10° W 23:50:12 23° W 23:50:12 23° W
